KE7JVX-3 Weather Reports


time (UTC)temp
C
wind
direction
speed
KPH
gust
KPH
rain 1hr
cm
rain 24hr
cm
rain mn
cm
humidity
%
barometer
mb
20260903205907 16 269 11.3 29.0 0.00 0.00 0.00 53 1015.6
20260903204907 16 263 12.9 25.7 0.00 0.00 0.00 58 1015.8
20260903203908 16 248 14.5 27.4 0.00 0.00 0.00 57 1015.8
20260903202907 16 252 14.5 32.2 0.00 0.00 0.00 58 1015.8
20260903201907 16 266 8.0 20.9 0.00 0.00 0.00 60 1015.9
20260903200907 16 260 12.9 25.7 0.00 0.00 0.00 56 1016.0
20260903195907 16 257 12.9 24.1 0.00 0.00 0.00 56 1016.0
20260903194907 15 243 6.4 14.5 0.00 0.00 0.00 63 1016.1
20260903193908 15 253 9.7 19.3 0.00 0.00 0.00 63 1016.1
20260903192907 15 255 8.0 20.9 0.00 0.00 0.00 63 1016.2
20260903191908 15 244 12.9 24.1 0.00 0.00 0.00 63 1016.3
20260903190908 15 232 11.3 22.5 0.00 0.00 0.00 64 1016.4
20260903185907 15 247 11.3 19.3 0.00 0.00 0.00 66 1016.4
20260903184907 15 246 14.5 22.5 0.00 0.00 0.00 67 1016.6
20260903183908 15 249 12.9 27.4 0.00 0.00 0.00 66 1016.7
20260903182909 15 264 11.3 20.9 0.00 0.00 0.00 64 1016.8
20260903181907 15 253 12.9 20.9 0.00 0.00 0.00 65 1016.8
20260903180911 15 262 9.7 17.7 0.00 0.00 0.00 65 1016.9
20260903175910 14 254 9.7 16.1 0.00 0.00 0.00 65 1016.9
20260903174907 14 267 6.4 16.1 0.00 0.00 0.00 64 1017.0
20260903173907 14 248 11.3 17.7 0.00 0.00 0.00 65 1017.0
20260903172907 13 256 4.8 14.5 0.00 0.00 0.00 65 1016.9
20260903171907 13 256 8.0 20.9 0.00 0.00 0.00 65 1017.0
20260903170908 14 266 11.3 24.1 0.00 0.00 0.00 66 1017.0
20260903165907 13 269 11.3 19.3 0.00 0.00 0.00 63 1016.9
20260903164907 13 227 6.4 16.1 0.00 0.00 0.00 62 1016.8
20260903163906 13 240 6.4 19.3 0.00 0.00 0.00 63 1016.8
20260903162907 13 244 8.0 16.1 0.00 0.00 0.00 64 1016.7
20260903161907 12 241 3.2 11.3 0.00 0.00 0.00 65 1016.7
20260903160907 12 255 4.8 14.5 0.00 0.00 0.00 68 1016.7
20260903155907 12 242 6.4 16.1 0.00 0.00 0.00 65 1016.7
20260903154907 12 260 8.0 12.9 0.00 0.00 0.00 62 1016.7
20260903153907 12 240 4.8 17.7 0.00 0.00 0.00 63 1016.7
20260903152907 12 236 8.0 17.7 0.00 0.00 0.00 60 1016.7
20260903151907 12 244 9.7 17.7 0.00 0.00 0.00 60 1016.7
20260903150907 12 255 8.0 16.1 0.00 0.00 0.00 54 1016.6
20260903145907 12 242 3.2 14.5 0.00 0.00 0.00 55 1016.6
20260903144908 13 234 3.2 6.4 0.00 0.00 0.00 48 1016.7
20260903143907 13 283 3.2 11.3 0.00 0.00 0.00 55 1016.6
20260903142907 13 302 3.2 8.0 0.00 0.00 0.00 55 1016.6
20260903141906 13 0 0.0 4.8 0.00 0.00 0.00 49 1016.6
20260903140907 13 302 1.6 8.0 0.00 0.00 0.00 52 1016.6
20260903135907 12 302 1.6 8.0 0.00 0.00 0.00 44 1016.4
20260903134907 12 286 8.0 12.9 0.00 0.00 0.00 53 1016.4
20260903133907 12 292 6.4 14.5 0.00 0.00 0.00 52 1016.4
20260903132906 12 292 6.4 11.3 0.00 0.00 0.00 52 1016.3
20260903131907 13 0 0.0 9.7 0.00 0.00 0.00 50 1016.3
20260903130907 13 273 6.4 14.5 0.00 0.00 0.00 62 1016.2
20260903125906 13 286 8.0 14.5 0.00 0.00 0.00 61 1016.0
20260903124911 13 273 6.4 16.1 0.00 0.00 0.00 63 1016.0
20260903123907 13 288 9.7 17.7 0.00 0.00 0.00 64 1016.0
20260903122907 13 304 11.3 17.7 0.00 0.00 0.00 63 1015.9
20260903121907 12 301 4.8 14.5 0.00 0.00 0.00 64 1015.9
20260903120906 12 306 8.0 16.1 0.00 0.00 0.00 67 1015.9
20260903115906 12 310 8.0 14.5 0.00 0.00 0.00 68 1015.9
20260903114907 13 310 6.4 16.1 0.00 0.00 0.00 65 1016.0
20260903113906 13 305 9.7 17.7 0.00 0.00 0.00 62 1015.9
20260903112907 13 307 9.7 17.7 0.00 0.00 0.00 60 1016.0
20260903111906 13 305 11.3 19.3 0.00 0.00 0.00 53 1015.9
20260903110907 12 304 12.9 20.9 0.00 0.00 0.00 52 1015.9
20260903105907 12 305 12.9 19.3 0.00 0.00 0.00 57 1015.8
20260903104906 12 305 14.5 22.5 0.00 0.00 0.00 59 1015.8
20260903103907 12 307 16.1 22.5 0.00 0.00 0.00 68 1015.8
20260903102908 12 303 14.5 24.1 0.00 0.00 0.00 73 1015.8
20260903101907 12 305 16.1 25.7 0.00 0.00 0.00 72 1015.9
20260903100907 12 290 17.7 30.6 0.00 0.00 0.00 72 1016.0
20260903095909 12 298 17.7 27.4 0.00 0.00 0.00 70 1016.0
20260903094906 12 301 19.3 29.0 0.00 0.00 0.00 68 1016.0
20260903093907 12 302 19.3 30.6 0.00 0.00 0.00 68 1016.1
20260903092906 12 299 19.3 29.0 0.00 0.00 0.00 68 1016.1
20260903090908 12 294 17.7 25.7 0.00 0.00 0.00 68 1016.1
20260903085907 13 303 16.1 27.4 0.00 0.00 0.00 68 1016.1
20260903084908 13 303 14.5 25.7 0.00 0.00 0.00 68 1016.2
20260903083908 12 299 16.1 25.7 0.00 0.00 0.00 68 1016.2
20260903082907 13 301 16.1 24.1 0.00 0.00 0.00 66 1016.2
20260903081907 13 294 16.1 25.7 0.00 0.00 0.00 63 1016.3
20260903080907 13 291 14.5 25.7 0.00 0.00 0.00 62 1016.4
20260903075907 13 271 20.9 32.2 0.00 0.00 0.00 60 1016.4
20260903074908 13 281 20.9 29.0 0.00 0.00 0.00 58 1016.5
20260903073907 13 287 20.9 29.0 0.00 0.00 0.00 58 1016.5
20260903072907 13 279 17.7 30.6 0.00 0.00 0.00 58 1016.5
20260903071907 13 290 17.7 30.6 0.00 0.00 0.00 59 1016.6
20260903070908 13 280 17.7 30.6 0.00 0.00 0.00 59 1016.6
20260903065908 13 292 19.3 27.4 0.00 0.00 0.00 60 1016.6
20260903064907 13 283 20.9 30.6 0.00 0.00 0.00 60 1016.6
20260903063907 13 282 22.5 30.6 0.00 0.00 0.00 58 1016.6
20260903062907 14 279 22.5 30.6 0.00 0.00 0.00 57 1016.6
20260903061908 13 283 22.5 30.6 0.00 0.00 0.00 56 1016.7
20260903060907 13 279 22.5 29.0 0.00 0.00 0.00 57 1016.6
20260903055907 14 273 17.7 30.6 0.00 0.00 0.00 56 1016.7
20260903054907 14 255 20.9 35.4 0.00 0.00 0.00 52 1016.7
20260903053907 15 273 20.9 30.6 0.00 0.00 0.00 50 1016.5
20260903052907 15 274 17.7 30.6 0.00 0.00 0.00 50 1016.5
20260903051907 15 266 17.7 29.0 0.00 0.00 0.00 49 1016.6
20260903050907 15 280 19.3 30.6 0.00 0.00 0.00 49 1016.5
20260903045907 15 277 19.3 27.4 0.00 0.00 0.00 49 1016.6
20260903044907 15 280 20.9 27.4 0.00 0.00 0.00 49 1016.7
20260903043907 15 289 19.3 27.4 0.00 0.00 0.00 48 1016.8
20260903042908 15 282 17.7 25.7 0.00 0.00 0.00 48 1016.9
20260903041907 15 278 17.7 24.1 0.00 0.00 0.00 48 1016.9
20260903040907 15 280 14.5 24.1 0.00 0.00 0.00 47 1016.8
20260903035907 15 285 14.5 22.5 0.00 0.00 0.00 47 1016.8
20260903034908 15 280 14.5 22.5 0.00 0.00 0.00 47 1016.7
20260903033908 15 286 12.9 20.9 0.00 0.00 0.00 47 1016.7
20260903032910 15 288 16.1 22.5 0.00 0.00 0.00 47 1016.7
20260903031907 15 292 12.9 20.9 0.00 0.00 0.00 48 1016.5
20260903030907 15 289 9.7 22.5 0.00 0.00 0.00 50 1016.6
20260903025911 15 290 12.9 24.1 0.00 0.00 0.00 50 1016.5
20260903024907 15 294 14.5 22.5 0.00 0.00 0.00 50 1016.4
20260903023907 15 295 14.5 22.5 0.00 0.00 0.00 51 1016.3
20260903022907 15 299 12.9 19.3 0.00 0.00 0.00 51 1016.2
20260903021907 15 302 9.7 20.9 0.00 0.00 0.00 52 1016.3
20260903020907 15 302 12.9 19.3 0.00 0.00 0.00 52 1016.1
20260903015908 15 300 11.3 19.3 0.00 0.00 0.00 51 1016.1
20260903014907 15 300 9.7 19.3 0.00 0.00 0.00 51 1016.1
20260903013907 15 306 14.5 24.1 0.00 0.00 0.00 50 1016.1
20260903012907 16 293 12.9 22.5 0.00 0.00 0.00 49 1016.1
20260903011907 16 292 8.0 25.7 0.00 0.00 0.00 46 1016.1
20260903010907 16 293 9.7 22.5 0.00 0.00 0.00 47 1016.1
20260903005907 16 304 11.3 19.3 0.00 0.00 0.00 46 1016.1
20260903004907 16 301 14.5 20.9 0.00 0.00 0.00 47 1016.1
20260903003918 17 308 12.9 20.9 0.00 0.00 0.00 43 1016.1
20260903002907 17 309 12.9 24.1 0.00 0.00 0.00 41 1016.1
20260903001908 17 285 9.7 24.1 0.00 0.00 0.00 42 1016.1
20260903000907 17 304 14.5 22.5 0.00 0.00 0.00 40 1016.1
20260902235907 17 294 11.3 24.1 0.00 0.00 0.00 40 1016.1
20260902234907 17 293 12.9 27.4 0.00 0.00 0.00 40 1016.2
20260902233910 17 300 14.5 22.5 0.00 0.00 0.00 43 1016.2
20260902232907 17 296 9.7 27.4 0.00 0.00 0.00 45 1016.3
20260902231907 17 287 9.7 30.6 0.00 0.00 0.00 46 1016.5
20260902230907 17 274 16.1 25.7 0.00 0.00 0.00 44 1016.6
20260902225907 17 289 19.3 33.8 0.00 0.00 0.00 42 1016.7
20260902224907 17 285 17.7 32.2 0.00 0.00 0.00 46 1016.6
20260902223907 17 293 20.9 29.0 0.00 0.00 0.00 44 1016.7
20260902222908 17 284 12.9 33.8 0.00 0.00 0.00 49 1016.9
20260902221907 17 270 20.9 33.8 0.00 0.00 0.00 47 1016.8
20260902220907 17 276 17.7 41.8 0.00 0.00 0.00 47 1016.8
20260902215907 17 289 14.5 32.2 0.00 0.00 0.00 49 1016.9
20260902214907 17 307 11.3 40.2 0.00 0.00 0.00 50 1017.0
20260902213907 17 289 14.5 37.0 0.00 0.00 0.00 47 1017.0
20260902212907 17 258 14.5 33.8 0.00 0.00 0.00 50 1017.1
20260902212004 17 286 8.0 32.2 0.00 0.00 0.00 50 1017.1
20260902211907 17 286 8.0 32.2 0.00 0.00 0.00 50 1017.1
20260902210908 17 284 11.3 32.2 0.00 0.00 0.00 52 1017.2